CW1523 Weather Reports


Display with metric or nautical units.
time (UTC)temp
F
wind
direction
speed
MPH
gust
MPH
rain 1hr
in
rain 24hr
in
rain mn
in
humidity
%
barometer
mb
20190324220437 77 182 0.0 12.0 0.00 0.00 0.00 54 1015.3
20190324220202 77 182 0.0 12.0 0.00 0.00 0.00 54 1015.3
20190324215448 77 169 1.0 12.0 0.00 0.00 0.00 55 1015.3
20190324214647 77 154 3.0 8.0 0.00 0.00 0.00 55 1015.3
20190324214442 77 154 0.0 8.0 0.00 0.00 0.00 55 1015.6
20190324213442 77 145 2.0 12.0 0.00 0.00 0.00 54 1015.6
20190324213202 77 168 2.0 12.0 0.00 0.00 0.00 54 1015.6
20190324212435 77 151 4.0 12.0 0.00 0.00 0.00 55 1015.8
20190324211659 77 192 4.0 12.0 0.00 0.00 0.00 54 1015.8
20190324211442 77 191 6.0 12.0 0.00 0.00 0.00 55 1015.9
20190324210444 77 171 5.0 12.0 0.00 0.00 0.00 55 1015.9
20190324210142 76 168 1.0 12.0 0.00 0.00 0.00 56 1015.9
20190324205441 76 199 5.0 18.0 0.00 0.00 0.00 55 1016.1
20190324204657 76 172 3.0 12.0 0.00 0.00 0.00 56 1016.1
20190324203459 76 186 1.0 11.0 0.00 0.00 0.00 57 1016.1
20190324203153 76 152 4.0 12.0 0.00 0.00 0.00 58 1016.1
20190324202448 76 224 1.0 12.0 0.00 0.00 0.00 58 1016.3
20190324201643 76 179 0.0 10.0 0.00 0.00 0.00 59 1016.3
20190324201454 76 179 1.0 10.0 0.00 0.00 0.00 58 1016.3
20190324200433 76 155 2.0 11.0 0.00 0.00 0.00 58 1016.5
20190324200156 76 150 5.0 11.0 0.00 0.00 0.00 59 1016.5
20190324195441 75 186 3.0 13.0 0.00 0.00 0.00 60 1016.7
20190324194641 75 181 3.0 14.0 0.00 0.00 0.00 61 1016.7
20190324194452 75 182 1.0 14.0 0.00 0.00 0.00 62 1016.7
20190324193449 74 191 4.0 12.0 0.00 0.00 0.00 62 1017.0
20190324192441 74 205 0.0 9.0 0.00 0.00 0.00 65 1017.3
20190324191637 73 198 2.0 8.0 0.00 0.00 0.00 65 1017.3
20190324191449 73 199 3.0 10.0 0.00 0.00 0.00 65 1017.3
20190324190448 73 198 6.0 10.0 0.00 0.00 0.00 65 1017.6
20190324190146 73 191 2.0 8.0 0.00 0.00 0.00 66 1017.6
20190324185442 73 174 3.0 8.0 0.00 0.00 0.00 64 1017.8
20190324184639 73 178 4.0 10.0 0.00 0.00 0.00 65 1017.8
20190324184454 73 160 2.0 10.0 0.00 0.00 0.00 67 1017.8
20190324183448 72 176 2.0 14.0 0.00 0.00 0.00 68 1017.9
20190324183140 72 188 4.0 14.0 0.00 0.00 0.00 67 1017.9
20190324182439 71 206 1.0 14.0 0.00 0.00 0.00 68 1018.2
20190324181658 71 224 5.0 12.0 0.00 0.00 0.00 69 1018.2
20190324181441 70 220 0.0 11.0 0.00 0.00 0.00 71 1018.3
20190324180434 70 203 3.0 10.0 0.00 0.00 0.00 73 1018.3
20190324180159 70 203 8.0 10.0 0.00 0.00 0.00 72 1018.3
20190324175446 69 186 2.0 10.0 0.00 0.00 0.00 72 1018.5
20190324174654 69 195 5.0 12.0 0.00 0.00 0.00 74 1018.5
20190324174439 69 198 6.0 12.0 0.00 0.00 0.00 74 1018.6
20190324173458 69 185 2.0 11.0 0.00 0.00 0.00 74 1018.6
20190324173152 69 186 6.0 12.0 0.00 0.00 0.00 74 1018.6
20190324172451 69 184 5.0 12.0 0.00 0.00 0.00 73 1018.7
20190324171646 69 195 1.0 11.0 0.00 0.00 0.00 73 1018.7
20190324171442 69 191 3.0 11.0 0.00 0.00 0.00 74 1018.7
20190324170457 69 219 6.0 13.0 0.00 0.00 0.00 73 1018.7
20190324170155 69 152 6.0 13.0 0.00 0.00 0.00 73 1018.7
20190324165440 68 196 5.0 12.0 0.00 0.00 0.00 74 1019.0
20190324164639 68 182 6.0 11.0 0.00 0.00 0.00 74 1019.0
20190324164450 68 217 3.0 10.0 0.00 0.00 0.00 76 1019.0
20190324163446 67 241 6.0 12.0 0.00 0.00 0.00 78 1019.1
20190324163137 67 206 1.0 12.0 0.00 0.00 0.00 79 1019.1
20190324162436 67 206 2.0 11.0 0.00 0.00 0.00 79 1019.1
20190324161652 67 193 1.0 13.0 0.00 0.00 0.00 79 1019.1
20190324161443 67 193 4.0 13.0 0.00 0.00 0.00 80 1019.0
20190324160459 67 219 2.0 12.0 0.00 0.00 0.00 80 1019.0
20190324160156 67 192 5.0 12.0 0.00 0.00 0.00 80 1019.0
20190324155441 66 208 2.0 12.0 0.00 0.00 0.00 82 1019.1
20190324154642 66 169 5.0 11.0 0.00 0.00 0.00 81 1019.1
20190324154453 66 160 4.0 11.0 0.00 0.00 0.00 81 1019.1
20190324153448 66 219 3.0 13.0 0.00 0.00 0.00 83 1019.0
20190324153141 66 195 4.0 13.0 0.00 0.00 0.00 83 1019.0
20190324152442 66 196 3.0 13.0 0.00 0.00 0.00 84 1019.0
20190324151658 65 200 4.0 13.0 0.00 0.00 0.00 85 1019.0
20190324151447 65 198 3.0 14.0 0.00 0.00 0.00 85 1019.0
20190324150500 65 203 4.0 8.0 0.00 0.00 0.00 86 1019.0
20190324150156 65 208 1.0 8.0 0.00 0.00 0.00 86 1019.0
20190324145444 65 208 2.0 11.0 0.00 0.00 0.00 87 1018.9
20190324144641 65 203 3.0 12.0 0.00 0.00 0.00 88 1018.9
20190324144436 65 203 2.0 12.0 0.00 0.00 0.00 88 1018.8
20190324143455 65 208 4.0 13.0 0.00 0.00 0.00 89 1018.8
20190324143149 65 200 4.0 12.0 0.00 0.00 0.00 89 1018.8
20190324142448 65 192 4.0 8.0 0.00 0.00 0.00 90 1018.8
20190324141450 64 191 1.0 7.0 0.00 0.00 0.00 90 1018.8
20190324140445 64 189 1.0 9.0 0.00 0.00 0.00 90 1018.8
20190324140143 64 189 4.0 9.0 0.00 0.00 0.00 90 1018.8
20190324135439 64 188 1.0 10.0 0.00 0.00 0.00 90 1018.7
20190324134638 64 185 2.0 8.0 0.00 0.00 0.00 90 1018.7
20190324134449 64 185 1.0 8.0 0.00 0.00 0.00 90 1018.7
20190324133445 64 184 0.0 8.0 0.00 0.00 0.00 90 1018.7
20190324133140 64 184 0.0 8.0 0.00 0.00 0.00 90 1018.7
20190324132454 64 179 2.0 7.0 0.00 0.00 0.00 91 1018.5
20190324131647 64 179 0.0 11.0 0.00 0.00 0.00 92 1018.5
20190324131443 64 179 3.0 11.0 0.00 0.00 0.00 92 1018.2
20190324130441 64 200 0.0 8.0 0.00 0.00 0.00 93 1018.2
20190324130138 64 199 0.0 6.0 0.00 0.00 0.00 93 1018.2
20190324125452 64 200 0.0 12.0 0.00 0.00 0.00 93 1018.1
20190324124657 64 174 2.0 8.0 0.00 0.00 0.00 94 1018.1
20190324124440 64 175 1.0 8.0 0.00 0.00 0.00 94 1017.8
20190324123434 64 175 0.0 8.0 0.00 0.00 0.00 95 1017.8
20190324122445 64 174 0.0 6.0 0.00 0.00 0.00 95 1017.6
20190324121637 64 174 0.0 6.0 0.00 0.00 0.00 95 1017.6
20190324121454 64 174 0.0 6.0 0.00 0.00 0.00 95 1017.6
20190324120447 64 174 2.0 6.0 0.00 0.00 0.00 95 1017.6
20190324120159 64 174 1.0 6.0 0.00 0.00 0.00 95 1017.6
20190324115445 64 174 0.0 6.0 0.00 0.00 0.00 95 1017.5
20190324114640 64 174 2.0 10.0 0.00 0.00 0.00 95 1017.5
20190324114454 64 174 0.0 10.0 0.00 0.00 0.00 95 1017.5
20190324113448 64 174 2.0 11.0 0.00 0.00 0.00 96 1017.5
20190324113145 64 172 0.0 8.0 0.00 0.00 0.00 96 1017.5
20190324112439 64 169 2.0 7.0 0.00 0.00 0.00 96 1017.3
20190324111654 63 169 1.0 7.0 0.00 0.00 0.00 96 1017.3
20190324111449 63 169 2.0 7.0 0.00 0.00 0.00 96 1017.3
20190324110445 63 168 2.0 7.0 0.00 0.00 0.00 95 1017.1
20190324110138 63 168 0.0 6.0 0.00 0.00 0.00 95 1017.1
20190324105453 63 168 0.0 8.0 0.00 0.00 0.00 95 1017.0
20190324104659 63 167 3.0 7.0 0.00 0.00 0.00 94 1017.0
20190324104442 63 167 3.0 8.0 0.00 0.00 0.00 94 1017.1
20190324103438 63 175 0.0 7.0 0.00 0.00 0.00 94 1017.1
20190324103201 63 175 4.0 7.0 0.00 0.00 0.00 94 1017.1
20190324102450 63 175 0.0 7.0 0.00 0.00 0.00 94 1017.4
20190324101644 63 175 4.0 7.0 0.00 0.00 0.00 93 1017.4
20190324101440 63 175 1.0 5.0 0.00 0.00 0.00 93 1017.5
20190324100436 63 175 0.0 7.0 0.00 0.00 0.00 92 1017.5
20190324100156 63 175 1.0 7.0 0.00 0.00 0.00 92 1017.5
20190324095443 64 175 0.0 0.0 0.00 0.00 0.00 91 1017.3
20190324094641 64 175 0.0 5.0 0.00 0.00 0.00 90 1017.3
20190324094454 64 175 0.0 5.0 0.00 0.00 0.00 90 1017.3
20190324093449 64 175 0.0 7.0 0.00 0.00 0.00 90 1017.2
20190324093145 64 175 2.0 7.0 0.00 0.00 0.00 90 1017.2
20190324092440 64 175 0.0 6.0 0.00 0.00 0.00 91 1017.1
20190324091652 64 174 0.0 10.0 0.00 0.00 0.00 91 1017.1
20190324091448 64 174 1.0 10.0 0.00 0.00 0.00 91 1017.1
20190324090443 64 174 3.0 7.0 0.00 0.00 0.00 90 1017.1
20190324090139 64 174 0.0 4.0 0.00 0.00 0.00 90 1017.1
20190324085454 64 174 0.0 6.0 0.00 0.00 0.00 90 1017.2
20190324084659 64 174 1.0 5.0 0.00 0.00 0.00 90 1017.2
20190324084443 64 174 0.0 0.0 0.00 0.00 0.00 90 1017.1
20190324083439 64 174 1.0 6.0 0.00 0.00 0.00 90 1017.1
20190324083135 64 174 1.0 6.0 0.00 0.00 0.00 90 1017.1
20190324082450 64 172 0.0 8.0 0.00 0.00 0.00 90 1017.3
20190324081642 64 172 2.0 8.0 0.00 0.00 0.00 90 1017.3
20190324081439 64 172 1.0 7.0 0.00 0.00 0.00 90 1017.4
20190324080433 64 193 1.0 12.0 0.00 0.00 0.00 90 1017.4
20190324080156 64 200 4.0 12.0 0.00 0.00 0.00 89 1017.4
20190324075443 64 155 3.0 11.0 0.00 0.00 0.00 89 1017.4
20190324074659 64 192 3.0 11.0 0.00 0.00 0.00 89 1017.4
20190324074443 64 154 1.0 12.0 0.00 0.00 0.00 89 1017.4
20190324073439 64 179 2.0 11.0 0.00 0.00 0.00 89 1017.4
20190324073137 64 176 0.0 11.0 0.00 0.00 0.00 89 1017.4
20190324072453 64 162 2.0 10.0 0.00 0.00 0.00 89 1017.5
20190324071647 64 144 3.0 14.0 0.00 0.00 0.00 89 1017.5
20190324071442 64 203 5.0 14.0 0.00 0.00 0.00 89 1017.6
20190324070435 64 162 0.0 16.0 0.00 0.00 0.00 89 1017.6
20190324070156 64 162 6.0 16.0 0.00 0.00 0.00 89 1017.6
20190324065447 64 189 4.0 11.0 0.00 0.00 0.00 89 1017.6
20190324064657 64 174 3.0 10.0 0.00 0.00 0.00 89 1017.6
20190324064442 64 172 3.0 10.0 0.00 0.00 0.00 89 1017.6
20190324063443 64 193 2.0 10.0 0.00 0.00 0.00 89 1017.6
20190324063141 64 182 0.0 10.0 0.00 0.00 0.00 89 1017.6
20190324062439 64 189 3.0 12.0 0.00 0.00 0.00 89 1017.7
20190324061723 64 179 3.0 12.0 0.00 0.00 0.00 89 1017.7
20190324061438 64 182 5.0 12.0 0.00 0.00 0.00 89 1017.6
20190324060437 64 158 0.0 10.0 0.00 0.00 0.00 89 1017.6
20190324060158 64 116 1.0 10.0 0.00 0.00 0.00 89 1017.6
20190324055446 64 164 3.0 11.0 0.00 0.00 0.00 89 1017.6
20190324054654 64 171 5.0 17.0 0.00 0.00 0.00 89 1017.6
20190324054439 64 124 3.0 12.0 0.00 0.00 0.00 89 1017.5
20190324053438 64 176 1.0 11.0 0.00 0.00 0.00 89 1017.5
20190324053201 64 176 3.0 11.0 0.00 0.00 0.00 89 1017.5
20190324052449 64 174 2.0 12.0 0.00 0.00 0.00 89 1017.3
20190324051655 64 169 3.0 14.0 0.00 0.00 0.00 89 1017.3
20190324051441 64 219 5.0 14.0 0.00 0.00 0.00 89 1017.3
20190324050152 64 148 4.0 14.0 0.00 0.00 0.00 89 1017.3
20190324045442 64 157 1.0 13.0 0.00 0.00 0.00 89 1017.3
20190324044636 64 127 4.0 14.0 0.00 0.00 0.00 88 1017.3
20190324044448 64 168 5.0 14.0 0.00 0.00 0.00 88 1017.3
20190324043445 64 154 6.0 12.0 0.00 0.00 0.00 88 1017.6
20190324043141 64 121 2.0 13.0 0.00 0.00 0.00 88 1017.6
20190324042436 64 178 6.0 13.0 0.00 0.00 0.00 88 1017.7
20190324041636 64 160 4.0 12.0 0.00 0.00 0.00 88 1017.7
20190324041447 64 169 2.0 14.0 0.00 0.00 0.00 88 1017.7
20190324040443 64 181 1.0 11.0 0.00 0.00 0.00 88 1017.7
20190324040135 64 144 2.0 12.0 0.00 0.00 0.00 88 1017.7
20190324035454 64 164 3.0 12.0 0.00 0.00 0.00 87 1017.8
20190324034646 64 138 3.0 12.0 0.00 0.00 0.00 86 1017.8
20190324034438 64 162 1.0 11.0 0.00 0.00 0.00 86 1017.7
20190324033433 64 161 1.0 12.0 0.00 0.00 0.00 86 1017.7
20190324033156 64 161 0.0 12.0 0.00 0.00 0.00 86 1017.7
20190324032443 64 160 1.0 11.0 0.00 0.00 0.00 85 1017.6
20190324031659 64 152 4.0 11.0 0.00 0.00 0.00 85 1017.6
20190324031443 64 167 2.0 12.0 0.00 0.00 0.00 85 1017.4
20190324030436 64 147 4.0 12.0 0.00 0.00 0.00 86 1017.4
20190324030200 64 145 1.0 12.0 0.00 0.00 0.00 86 1017.4
20190324025449 64 175 3.0 12.0 0.00 0.00 0.00 86 1017.4
20190324024642 64 110 7.0 12.0 0.00 0.00 0.00 88 1017.4
20190324024434 64 158 2.0 12.0 0.00 0.00 0.00 88 1017.5
20190324023450 64 167 3.0 11.0 0.00 0.00 0.00 89 1017.5
20190324023146 64 167 1.0 11.0 0.00 0.00 0.00 90 1017.5
20190324022441 63 164 0.0 8.0 0.00 0.00 0.00 90 1017.7
20190324021637 63 167 0.0 7.0 0.00 0.00 0.00 92 1017.7
20190324021449 63 167 1.0 7.0 0.00 0.00 0.00 92 1017.7
20190324020445 63 168 0.0 5.0 0.00 0.00 0.00 92 1017.9
20190324015435 63 168 0.0 0.0 0.00 0.00 0.00 92 1017.8
20190324014655 63 168 0.0 4.0 0.00 0.00 0.00 92 1017.8
20190324014439 63 168 0.0 4.0 0.00 0.00 0.00 92 1017.8
20190324013434 64 168 0.0 0.0 0.00 0.00 0.00 91 1017.8
20190324013157 64 168 0.0 6.0 0.00 0.00 0.00 90 1017.8
20190324012442 64 168 2.0 6.0 0.00 0.00 0.00 88 1017.8
20190324011637 64 168 0.0 6.0 0.00 0.00 0.00 85 1017.8
20190324011450 64 168 4.0 6.0 0.00 0.00 0.00 85 1017.8
20190324010444 65 168 0.0 11.0 0.00 0.00 0.00 82 1017.7
20190324010137 65 168 2.0 14.0 0.00 0.00 0.00 81 1017.7
20190324005436 65 167 5.0 14.0 0.00 0.00 0.00 80 1017.4
20190324004656 66 176 2.0 14.0 0.00 0.00 0.00 79 1017.4
20190324004439 66 179 7.0 14.0 0.00 0.00 0.00 79 1017.1
20190324003435 66 141 4.0 11.0 0.00 0.00 0.00 78 1017.1
20190324003200 66 131 3.0 11.0 0.00 0.00 0.00 77 1017.1
20190324002447 66 167 1.0 10.0 0.00 0.00 0.00 77 1016.8
20190324001651 66 164 3.0 12.0 0.00 0.00 0.00 76 1016.8
20190324001440 66 178 3.0 13.0 0.00 0.00 0.00 76 1016.8
20190324000439 66 164 3.0 10.0 0.00 0.00 0.00 75 1016.8
20190324000151 66 162 5.0 10.0 0.00 0.00 0.00 75 1016.8
20190323235441 66 160 0.0 13.0 0.00 0.00 0.00 75 1016.8
20190323234643 67 145 3.0 16.0 0.00 0.00 0.00 75 1016.8
20190323234435 67 141 6.0 16.0 0.00 0.00 0.00 75 1016.8
20190323233438 67 150 5.0 14.0 0.00 0.00 0.00 74 1016.8
20190323233136 67 150 5.0 14.0 0.00 0.00 0.00 74 1016.8
20190323232434 67 168 2.0 10.0 0.00 0.00 0.00 74 1016.7
20190323231637 67 165 1.0 8.0 0.00 0.00 0.00 74 1016.7
20190323231449 67 165 2.0 8.0 0.00 0.00 0.00 74 1016.7
20190323230447 67 164 2.0 8.0 0.00 0.00 0.00 76 1016.4
20190323230141 67 161 0.0 7.0 0.00 0.00 0.00 76 1016.4
20190323225441 67 161 1.0 10.0 0.00 0.00 0.00 77 1016.3
20190323224636 66 160 5.0 10.0 0.00 0.00 0.00 78 1016.3
20190323224450 66 158 3.0 9.0 0.00 0.00 0.00 78 1016.3
20190323223444 66 151 3.0 10.0 0.00 0.00 0.00 78 1016.4
20190323223143 66 150 0.0 7.0 0.00 0.00 0.00 79 1016.4
20190323222438 67 150 0.0 13.0 0.00 0.00 0.00 78 1016.7
20190323221636 67 136 4.0 14.0 0.00 0.00 0.00 74 1016.7
20190323221447 67 143 5.0 14.0 0.00 0.00 0.00 74 1016.5